Weather History for Gainesville, FL

Change the Weather History Date:

Thursday, October 18, 2012

  Actual Average Record
Temperature  
Mean Temperature 75 °F 70 °F  
Max Temperature 87 °F 81 °F 93 °F (1981)
Min Temperature 63 °F 60 °F 38 °F (1977)
Degree Days  
Heating Degree Days 0 1  
Month to date heating degree days 0 6  
Since 1 July heating degree days 0 6  
Cooling Degree Days 10 6  
Month to date cooling degree days 191 148  
Year to date cooling degree days 2888 2488  
Growing Degree Days 24 (Base 50)    
Moisture  
Dew Point 65 °F    
Average Humidity 73    
Maximum Humidity 100    
Minimum Humidity 45    
Precipitation  
Precipitation 0.00 in 0.08 in 2.00 in (1950)
Month to date precipitation 0.86 1.96  
Year to date precipitation 49.23 41.95  
Snow  
Snow 0.00 in 0.00 in 0.00 in ()
Month to date snowfall 0.0 0.0  
Since 1 July snowfall 0.0 0.0  
Since 1 September snowfall 0.0 0.0  
Snow Depth 0.00 in    
Sea Level Pressure  
Sea Level Pressure 29.86 in    
Wind  
Wind Speed 4 mph (WSW)    
Max Wind Speed 14 mph    
Max Gust Speed 91 mph    
Visibility 5 miles    
Events Fog    
T = Trace of Precipitation, MM = Missing Value Source: NWS Daily Summary

Daily Weather History Graph

Daily Weather History Graph

Search for Another Location

Airport:

Trip Planner

Search our weather history database for the weather conditions in past years. The results will help you decide how hot, cold, wet, or windy it might be!

Date:

Astronomy

Oct. 18, 2012 Rise Set
Actual Time 7:32 AM EDT 6:54 PM EDT
Civil Twilight 7:08 AM EDT 7:18 PM EDT
Nautical Twilight 6:41 AM EDT 7:46 PM EDT
Astronomical Twilight 6:13 AM EDT 8:14 PM EDT
Moon 10:58 AM EDT (10/18) 9:43 PM EDT (10/18)
Length of Visible Light 12h 10m
Length of Day
11h 21m
Waxing Crescent, 14% of the Moon is Illuminated
Oct 18
Waxing Crescent
Oct 21
First Quarter
Oct 29
Full
Nov 6
Last Quarter
Nov 13
New

Hourly Weather History & Observations

Time (EDT) Temp. Heat Index Dew Point Humidity Pressure Visibility Wind Dir Wind Speed Gust Speed Precip Events Conditions
12:53 AM 66.0 °F - 64.9 °F 96% 29.86 in 4.0 mi Calm Calm - N/A   Mostly Cloudy
1:20 AM 64.4 °F - 64.4 °F 100% 29.86 in 1.5 mi Calm Calm - N/A   Partly Cloudy
1:30 AM 64.4 °F - 62.6 °F 94% 29.86 in 3.0 mi Calm Calm - N/A   Mostly Cloudy
1:53 AM 64.9 °F - 63.0 °F 93% 29.85 in 9.0 mi Calm Calm - N/A   Partly Cloudy
2:53 AM 66.9 °F - 64.9 °F 93% 29.83 in 9.0 mi Calm Calm - N/A   Mostly Cloudy
3:53 AM 66.9 °F - 66.0 °F 97% 29.82 in 9.0 mi Calm Calm - N/A   Mostly Cloudy
4:31 AM 66.2 °F - 66.2 °F 100% 29.83 in 1.8 mi Calm Calm - N/A   Mostly Cloudy
4:42 AM 64.4 °F - 64.4 °F 100% 29.84 in 0.8 mi Calm Calm - N/A   Mostly Cloudy
4:48 AM 64.4 °F - 64.4 °F 100% 29.84 in 3.0 mi Calm Calm - N/A   Overcast
4:53 AM 66.0 °F - 64.9 °F 96% 29.84 in 9.0 mi Calm Calm - N/A   Overcast
5:12 AM 66.2 °F - 64.4 °F 94% 29.85 in 9.0 mi Calm Calm - N/A   Overcast
5:19 AM 66.2 °F - 64.4 °F 94% 29.85 in 7.0 mi Calm Calm - N/A   Mostly Cloudy
5:36 AM 66.2 °F - 64.4 °F 94% 29.86 in 2.0 mi Calm Calm - N/A   Partly Cloudy
5:40 AM 66.2 °F - 64.4 °F 94% 29.86 in 1.0 mi Calm Calm - N/A   Mist
5:46 AM 64.4 °F - 62.6 °F 94% 29.86 in 0.2 mi Calm Calm - N/A Fog Fog
5:53 AM 64.0 °F - 63.0 °F 96% 29.85 in 0.5 mi Calm Calm - N/A Fog Fog
6:10 AM 64.4 °F - 64.4 °F 100% 29.87 in 2.5 mi Calm Calm - N/A   Mostly Cloudy
6:14 AM 62.6 °F - 62.6 °F 100% 29.86 in 0.8 mi Calm Calm - N/A   Overcast
6:25 AM 64.4 °F - 62.6 °F 94% 29.87 in 0.2 mi Calm Calm - N/A Fog Fog
6:37 AM 64.4 °F - 62.6 °F 94% 29.87 in 0.5 mi Calm Calm - N/A Fog Fog
6:53 AM 64.0 °F - 63.0 °F 96% 29.87 in 1.8 mi Calm Calm - N/A   Mostly Cloudy
6:55 AM 64.4 °F - 62.6 °F 94% 29.88 in 3.0 mi Calm Calm - N/A   Mostly Cloudy
7:10 AM 64.4 °F - 62.6 °F 94% 29.88 in 3.0 mi Calm Calm - N/A   Mostly Cloudy
7:53 AM 66.0 °F - 64.9 °F 96% 29.88 in 1.0 mi ESE 3.5 mph - N/A   Overcast
8:10 AM 66.2 °F - 66.2 °F 100% 29.88 in 0.2 mi Calm Calm - N/A Fog Fog
8:44 AM 68.0 °F - 68.0 °F 100% 29.89 in 0.2 mi SE 3.5 mph - N/A Fog Fog
8:53 AM 68.0 °F - 66.9 °F 96% 29.88 in 0.2 mi SE 4.6 mph - N/A Fog Fog
9:32 AM 69.8 °F - 68.0 °F 94% 29.90 in 0.2 mi Calm Calm - N/A Fog Fog
9:49 AM 69.8 °F - 69.8 °F 100% 29.90 in 0.5 mi Calm Calm - N/A Fog Fog
9:53 AM 70.0 °F - 69.1 °F 97% 29.89 in 0.5 mi Calm Calm - N/A Fog Fog
10:02 AM 69.8 °F - 69.8 °F 100% 29.90 in 2.0 mi Calm Calm - N/A   Overcast
10:17 AM 71.6 °F - 69.8 °F 94% 29.90 in 5.0 mi Calm Calm - N/A   Overcast
10:38 AM 75.2 °F - 71.6 °F 89% 29.89 in 10.0 mi Calm Calm - N/A   Scattered Clouds
10:53 AM 77.0 °F - 69.1 °F 76% 29.89 in 10.0 mi SSW 5.8 mph - N/A   Clear
11:53 AM 82.0 °F 83.4 °F 64.0 °F 54% 29.88 in 10.0 mi SW 8.1 mph - N/A   Clear
12:53 PM 82.9 °F 85.0 °F 66.0 °F 56% 29.86 in 10.0 mi WNW 8.1 mph - N/A   Mostly Cloudy
1:53 PM 84.9 °F 85.9 °F 63.0 °F 48% 29.83 in 10.0 mi WSW 10.4 mph - N/A   Scattered Clouds
2:53 PM 84.9 °F 85.9 °F 63.0 °F 48% 29.80 in 10.0 mi West 6.9 mph - N/A   Mostly Cloudy
3:53 PM 86.0 °F 86.3 °F 62.1 °F 44% 29.81 in 10.0 mi West 9.2 mph - N/A   Scattered Clouds
4:53 PM 84.9 °F 85.4 °F 62.1 °F 46% 29.80 in 10.0 mi WSW 9.2 mph - N/A   Clear
5:53 PM 82.9 °F 83.7 °F 62.1 °F 49% 29.81 in 10.0 mi West 5.8 mph - N/A   Clear
6:53 PM 75.9 °F - 63.0 °F 64% 29.83 in 10.0 mi WSW 4.6 mph - N/A   Clear
7:53 PM 73.0 °F - 64.9 °F 76% 29.84 in 10.0 mi West 3.5 mph - N/A   Clear
8:53 PM 69.1 °F - 64.9 °F 87% 29.86 in 10.0 mi West 4.6 mph - N/A   Clear
9:53 PM 70.0 °F - 64.0 °F 81% 29.87 in 10.0 mi WSW 4.6 mph - N/A   Clear
10:53 PM 70.0 °F - 64.9 °F 84% 29.87 in 10.0 mi West 3.5 mph - N/A   Clear
11:53 PM 69.1 °F - 64.9 °F 87% 29.87 in 10.0 mi Calm Calm - N/A   Clear